[[{"header":{"parameterUnit":"m.s-1","parameterCategory":1,"la1":30.2991,"la2":30.254,"lo1":-89.0895,"lo2":-89.0444,"dy":0.0017,"dx":0.0017,"nx":28,"ny":28,"refTime":"2023-10-16T03:00:00:Z","depth":0,"parameterNumber":2,"parameterNumberName":"U-component_of_WINDS"},"data":[0,0,0,0,0,0,0,0,0,0,0,0,0,0,0,0,0,0,0,0,0,0,0,0,0,0,0,0,0,0,0,0,0,0,0,0,0,0,0,0,0,0,0,0,0,0,0,0,0,0,0,0,0,0,0,0,0,0,2.2361,2.2361,0,2.2319,2.2318,2.2318,2.225,2.2249,2.2248,2.2247,2.2203,2.2203,2.2203,0,0,0,0,0,0,0,0,0,0,0,0,0,2.2384,2.2384,2.2361,2.2361,2.236,2.2319,2.2318,2.2318,2.225,2.2249,2.2247,2.2246,2.2203,2.2203,2.2203,0,0,0,0,0,0,0,0,0,0,0,0,0,2.2361,2.2384,2.2361,2.2322,2.2318,2.2319,2.2318,2.2318,2.2251,2.2249,2.2247,2.2245,2.2203,2.2203,2.2203,2.2239,0,0,2.2202,2.2202,0,0,0,0,0,0,0,0,2.2363,2.2361,2.2328,2.2324,2.232,2.2288,2.231,2.2291,2.2251,2.2276,2.2247,2.2244,2.2232,2.223,2.2226,2.2237,2.2235,2.2202,2.2202,2.2202,2.2202,0,0,0,0,0,0,0,2.2365,2.2362,2.2344,2.2328,2.2323,2.2306,2.2301,2.2306,2.2265,2.2274,2.2269,2.2265,2.223,2.2226,2.2224,2.2235,2.2202,2.2202,2.2202,2.2202,2.2275,2.2277,0,0,0,0,0,0,2.2372,2.2364,2.2346,2.2343,2.2337,2.2307,2.2301,2.23,2.2265,2.2258,2.2266,2.2262,2.2227,2.2225,2.2223,2.2263,2.2202,2.2202,2.2202,2.2273,2.2276,2.2278,0,0,0,0,0,0,2.2373,2.2371,2.2347,2.2352,2.2348,2.2309,2.2308,2.23,2.2296,2.2259,2.2252,2.227,2.2226,2.2223,2.2236,2.2261,2.2202,2.2202,2.2271,2.2274,2.2277,2.2345,0,0,0,0,0,0,2.2374,2.2372,2.2385,2.2353,2.2348,2.2361,2.2309,2.2301,2.2296,2.229,2.2261,2.2254,2.2224,2.2236,2.2236,2.226,2.2202,2.2268,2.2272,2.2276,2.2341,2.235,2.2359,0,0,0,0,0,2.2375,2.2405,2.2386,2.2384,2.2364,2.2363,2.236,2.2325,2.2299,2.2312,2.2288,2.2255,2.2259,2.2238,2.2237,2.2262,2.2267,2.2271,2.2275,2.2337,2.2348,2.2358,0,0,0,0,0,0,2.244,2.24,2.2378,2.2399,2.2385,2.2351,2.2366,2.2338,2.2331,2.2325,2.2282,2.2276,2.2295,2.2279,2.2257,2.2296,2.2258,2.2262,2.2305,2.2315,2.2324,2.2327,2.2202,0,0,0,0,0,2.2458,2.246,2.2425,2.2448,2.2442,2.2406,2.2404,2.2379,2.2362,2.2355,2.2333,2.2318,2.2316,2.2315,2.2311,2.2339,2.2332,2.2355,2.2364,2.2372,2.2376,2.239,2.24,2.2292,2.2292,2.2292,0,0,2.2493,2.2471,2.2475,2.246,2.2446,2.245,2.2401,2.2407,2.241,2.2356,2.2367,2.2351,2.2331,2.2352,2.236,2.234,2.2405,2.2377,2.2384,2.2383,2.2396,2.2406,2.2415,2.2295,2.2294,2.2294,0,0,2.2558,2.2543,2.256,2.2547,2.2527,2.2503,2.2507,2.2478,2.2465,2.2476,2.2436,2.2439,2.2436,2.2424,2.2418,2.2482,2.2451,2.2482,2.2528,2.2543,2.2551,2.2559,2.2582,2.259,2.2486,2.2487,2.2487,0,2.2604,2.2608,2.2572,2.2581,2.2576,2.2529,2.2546,2.2535,2.2515,2.2513,2.2491,2.2487,2.2471,2.2489,2.2505,2.2501,2.2505,2.2484,2.2553,2.256,2.2566,2.2588,2.2596,2.249,2.249,2.249,2.2489,0,2.2666,2.267,2.2686,2.2668,2.2665,2.2678,2.2644,2.2646,2.2621,2.26,2.2612,2.2592,2.2583,2.2586,2.2561,2.2601,2.2589,2.2561,2.2521,2.2581,2.26,2.2608,2.2496,2.2495,2.2493,2.2492,0,0,2.277,2.2733,2.2739,2.2731,2.2706,2.2709,2.2721,2.2713,2.2715,2.2703,2.2712,2.2712,2.2686,2.2679,2.2653,2.2667,2.2719,2.2637,2.2636,2.2652,2.2762,2.2782,2.2792,2.2699,2.2701,2.2702,2.2763,0,2.283,2.2847,2.2815,2.284,2.2844,2.2801,2.2811,2.2797,2.2779,2.2779,2.2759,2.2759,2.2725,2.2721,2.2732,2.271,2.274,2.2706,2.2707,2.2707,2.2712,2.2802,2.2823,2.2882,2.277,2.2772,2.2773,0,2.2901,2.2894,2.2919,2.2894,2.2894,2.2904,2.2895,2.2896,2.2881,2.2866,2.286,2.283,2.2841,2.2804,2.2818,2.2795,2.2794,2.2784,2.2786,2.2783,2.2743,2.2801,2.29,2.2908,2.2784,2.2783,2.2782,0,2.2974,2.297,2.2985,2.2979,2.2951,2.2959,2.2947,2.293,2.2928,2.292,2.2918,2.2912,2.2909,2.2905,2.2875,2.2851,2.2893,2.2854,2.2881,2.2882,2.289,2.289,2.2989,2.2892,2.2892,2.2892,2.2892,0,2.3043,2.306,2.3017,2.3026,2.3045,2.3009,2.3029,2.3013,2.2998,2.3004,2.2967,2.2973,2.2934,2.2936,2.2913,2.2928,2.2927,2.2916,2.2909,2.2918,2.292,2.2916,2.2911,2.2894,2.2894,2.2893,2.2893,0,2.3126,2.3098,2.3112,2.3084,2.3078,2.3093,2.3069,2.3077,2.3057,2.3065,2.3065,2.3033,2.3034,2.3004,2.2999,2.2984,2.3009,2.2996,2.3014,2.301,2.3039,2.3036,2.3138,2.3149,2.3046,2.3047,2.3048,0,2.3172,2.3184,2.3158,2.316,2.315,2.3153,2.3151,2.3117,2.3116,2.3101,2.3111,2.3109,2.3105,2.3109,2.3085,2.3082,2.3067,2.3104,2.3066,2.3076,2.3067,2.3067,2.3068,2.3111,2.3112,2.3113,2.3114,0,2.3255,2.3241,2.324,2.3234,2.3233,2.3226,2.3218,2.3221,2.3185,2.3186,2.3187,2.3184,2.318,2.3178,2.3171,2.3159,2.3131,2.3126,2.3132,2.3141,2.3151,2.3146,2.3034,2.3123,2.3122,2.3122,2.3121,2.3121,2.332,2.333,2.3313,2.3313,2.3304,2.3297,2.3303,2.3284,2.3285,2.3278,2.3259,2.3263,2.3249,2.3236,2.3227,2.323,2.3212,2.3221,2.3223,2.3226,2.3231,2.3152,2.3229,2.3229,2.3228,2.3228,2.3228,0,2.3401,2.3389,2.339,2.3379,2.338,2.3354,2.3344,2.3346,2.335,2.3339,2.3337,2.3339,2.3338,2.3316,2.3312,2.3319,2.3306,2.332,2.3318,2.3316,2.3247,2.3242,2.333,2.333,2.333,2.333,2.333,2.333,2.3443,2.3458,2.3443,2.3453,2.344,2.3444,2.3441,2.3435,2.3426,2.343,2.3429,2.3415,2.34,2.3395,2.3394,2.3387,2.3388,2.3405,2.3395,2.3331,2.3321,2.3311,2.3306,2.3406,2.3406,2.3462,2.3463,2.3463]},{"header":{"parameterUnit":"m.s-1","parameterCategory":1,"la1":30.2991,"la2":30.254,"lo1":-89.0895,"lo2":-89.0444,"dy":0.0017,"dx":0.0017,"nx":28,"ny":28,"refTime":"2023-10-16T03:00:00:Z","depth":0,"parameterNumber":3,"parameterNumberName":"V-component_of_WINDS"},"data":[0,0,0,0,0,0,0,0,0,0,0,0,0,0,0,0,0,0,0,0,0,0,0,0,0,0,0,0,0,0,0,0,0,0,0,0,0,0,0,0,0,0,0,0,0,0,0,0,0,0,0,0,0,0,0,0,0,0,-5.787,-5.7872,0,-5.8035,-5.8037,-5.8038,-5.7977,-5.7973,-5.797,-5.7966,-5.8129,-5.8137,-5.8144,0,0,0,0,0,0,0,0,0,0,0,0,0,-5.7497,-5.7504,-5.787,-5.7872,-5.7874,-5.8034,-5.8037,-5.8039,-5.7978,-5.7973,-5.7969,-5.7964,-5.8126,-5.8136,-5.8145,0,0,0,0,0,0,0,0,0,0,0,0,0,-5.766,-5.7507,-5.7869,-5.7863,-5.7864,-5.8034,-5.8037,-5.8039,-5.7979,-5.7973,-5.7967,-5.7962,-5.8123,-5.8135,-5.8146,-5.8331,0,0,-5.8182,-5.8187,0,0,0,0,0,0,0,0,-5.7651,-5.7674,-5.7862,-5.7864,-5.7865,-5.798,-5.7965,-5.8137,-5.798,-5.7935,-5.7966,-5.7959,-5.8083,-5.8098,-5.8141,-5.8338,-5.8345,-5.8183,-5.819,-5.8195,-5.8199,0,0,0,0,0,0,0,-5.764,-5.7666,-5.7935,-5.7865,-5.7867,-5.785,-5.7867,-5.7997,-5.8038,-5.7938,-5.7934,-5.7955,-5.8083,-5.813,-5.8144,-5.8348,-5.8183,-5.8193,-5.82,-5.8205,-5.8704,-5.871,0,0,0,0,0,0,-5.7628,-5.7657,-5.793,-5.794,-5.7742,-5.7861,-5.788,-5.7948,-5.8037,-5.8045,-5.796,-5.7952,-5.8113,-5.8131,-5.815,-5.8371,-5.8195,-5.8206,-5.8213,-5.8698,-5.8705,-5.8712,0,0,0,0,0,0,-5.7621,-5.7653,-5.7923,-5.7798,-5.7831,-5.7874,-5.7951,-5.7955,-5.8001,-5.8053,-5.8059,-5.8,-5.8109,-5.8133,-5.8286,-5.8376,-5.8211,-5.8222,-5.869,-5.87,-5.8708,-5.8816,0,0,0,0,0,0,-5.761,-5.7651,-5.7723,-5.78,-5.7838,-5.8059,-5.7956,-5.7962,-5.8022,-5.8013,-5.8093,-5.81,-5.8106,-5.8269,-5.8298,-5.8389,-5.8231,-5.8682,-5.8694,-5.8705,-5.8805,-5.8828,-5.8848,0,0,0,0,0,-5.7597,-5.7745,-5.7727,-5.776,-5.7929,-5.8064,-5.8086,-5.8091,-5.803,-5.8102,-5.8135,-5.8098,-5.8362,-5.8286,-5.8317,-5.8414,-5.8677,-5.8691,-5.8705,-5.8795,-5.8824,-5.8847,0,0,0,0,0,0,-5.7676,-5.7755,-5.7735,-5.7913,-5.7983,-5.8054,-5.8144,-5.8121,-5.8208,-5.8195,-5.8197,-5.8215,-5.8373,-5.8408,-5.8322,-5.8596,-5.851,-5.8531,-5.8568,-5.8595,-5.8616,-5.8604,-5.8241,0,0,0,0,0,-5.7714,-5.7819,-5.7882,-5.8033,-5.8069,-5.8101,-5.816,-5.8159,-5.823,-5.8258,-5.8302,-5.8371,-5.8469,-5.8534,-5.8627,-5.881,-5.8825,-5.8891,-5.8913,-5.893,-5.8948,-5.9047,-5.9077,-5.8758,-5.8758,-5.8757,0,0,-5.7793,-5.785,-5.7916,-5.805,-5.8104,-5.8211,-5.8126,-5.8243,-5.8322,-5.8275,-5.8423,-5.8458,-5.8535,-5.8703,-5.878,-5.8738,-5.904,-5.8948,-5.8962,-5.897,-5.9064,-5.9095,-5.9121,-5.8767,-5.8765,-5.8764,0,0,-5.7993,-5.8047,-5.8179,-5.8235,-5.8318,-5.8338,-5.837,-5.8445,-5.8467,-5.8616,-5.8583,-5.8676,-5.8845,-5.8902,-5.8952,-5.9174,-5.9143,-5.9204,-5.9317,-5.9413,-5.9438,-5.946,-5.9539,-5.9567,-5.9222,-5.9222,-5.9223,0,-5.8081,-5.8244,-5.8249,-5.8369,-5.8429,-5.8393,-5.8526,-5.8579,-5.8688,-5.8729,-5.8681,-5.8893,-5.8942,-5.9123,-5.9178,-5.922,-5.9255,-5.9195,-5.9434,-5.9457,-5.9478,-5.9553,-5.9582,-5.9229,-5.9229,-5.9228,-5.9227,0,-5.8347,-5.846,-5.8556,-5.8664,-5.8734,-5.886,-5.8883,-5.8953,-5.8946,-5.8971,-5.9122,-5.918,-5.9285,-5.9327,-5.932,-5.9508,-5.9479,-5.9433,-5.9346,-5.9515,-5.9585,-5.9614,-5.9239,-5.9237,-5.9235,-5.9233,0,0,-5.8601,-5.8711,-5.8746,-5.8794,-5.8884,-5.897,-5.9094,-5.9198,-5.9258,-5.9334,-5.9437,-5.9582,-5.954,-5.9597,-5.9596,-5.9681,-5.9853,-5.9624,-5.9626,-5.9664,-6.0062,-6.0096,-6.013,-5.9833,-5.9838,-5.9843,-6.0056,0,-5.8807,-5.9027,-5.9035,-5.9234,-5.9338,-5.9306,-5.9414,-5.9479,-5.9506,-5.9597,-5.9625,-5.9728,-5.9665,-5.9699,-5.9782,-5.9814,-5.9932,-5.9799,-5.9927,-5.9932,-5.9909,-6.0167,-6.0203,-6.0401,-6.0083,-6.0088,-6.0091,0,-5.9078,-5.9165,-5.9375,-5.945,-5.9494,-5.9591,-5.9687,-5.9774,-5.9847,-5.9861,-5.9926,-5.9913,-6.0037,-5.9947,-6.0118,-6.0027,-6.008,-6.0104,-6.0112,-6.0123,-6.0021,-6.0185,-6.0464,-6.0494,-6.0135,-6.0131,-6.0128,0,-5.9241,-5.9411,-5.9558,-5.9601,-5.9692,-5.9761,-5.9801,-5.9869,-5.9931,-6.0015,-6.0055,-6.0151,-6.0204,-6.0278,-6.029,-6.0223,-6.0462,-6.0372,-6.0475,-6.0475,-6.0526,-6.0523,-6.0818,-6.0561,-6.0561,-6.056,-6.056,0,-5.9471,-5.9601,-5.9633,-5.9724,-5.9868,-5.9876,-6.0018,-6.0053,-6.0114,-6.021,-6.0187,-6.0277,-6.0288,-6.0381,-6.0391,-6.0531,-6.0555,-6.0568,-6.0569,-6.057,-6.0569,-6.0604,-6.0591,-6.0568,-6.0566,-6.0565,-6.0564,0,-5.9678,-5.9705,-5.9864,-5.9938,-5.9959,-6.0062,-6.0124,-6.021,-6.0235,-6.0356,-6.0385,-6.0423,-6.0531,-6.0551,-6.0678,-6.0685,-6.0852,-6.0839,-6.0828,-6.0826,-6.0928,-6.0918,-6.1256,-6.1301,-6.1015,-6.1018,-6.102,0,-5.9823,-5.9923,-6.0007,-6.0071,-6.0116,-6.0218,-6.0282,-6.0293,-6.036,-6.0452,-6.0527,-6.0633,-6.0718,-6.0892,-6.0929,-6.1026,-6.1015,-6.1127,-6.1029,-6.1027,-6.1017,-6.1011,-6.102,-6.1146,-6.1149,-6.1151,-6.1153,0,-6.0077,-6.0086,-6.018,-6.0279,-6.0357,-6.0435,-6.0509,-6.0562,-6.0582,-6.0659,-6.077,-6.0837,-6.0967,-6.1072,-6.1169,-6.1208,-6.1185,-6.1184,-6.1213,-6.1215,-6.1204,-6.1211,-6.0879,-6.1176,-6.1174,-6.1172,-6.1171,-6.117,-6.0257,-6.0344,-6.0418,-6.0523,-6.0581,-6.0651,-6.0736,-6.0772,-6.0865,-6.0974,-6.0974,-6.1096,-6.1165,-6.1293,-6.1339,-6.1433,-6.1397,-6.1439,-6.145,-6.146,-6.147,-6.119,-6.1451,-6.145,-6.145,-6.1449,-6.1449,0,-6.051,-6.0556,-6.0653,-6.0759,-6.0842,-6.0814,-6.0894,-6.0965,-6.1073,-6.1141,-6.1226,-6.1354,-6.1456,-6.1502,-6.1602,-6.1669,-6.166,-6.1695,-6.169,-6.1699,-6.1496,-6.1461,-6.17,-6.17,-6.17,-6.17,-6.17,-6.17,-6.0651,-6.0797,-6.0815,-6.0988,-6.1033,-6.1153,-6.1202,-6.1266,-6.132,-6.1465,-6.155,-6.158,-6.1639,-6.1744,-6.1836,-6.1846,-6.1884,-6.1924,-6.1929,-6.1739,-6.1713,-6.1689,-6.1656,-6.1932,-6.1932,-6.2125,-6.2126,-6.2128]}]]